Location: Audinghen
(50.8518°N, 1.6129°E)
Time: 05:29:19
(UTC+00:00)

Resurs 1-4 Rocket - Pass Details

Date: 07 August 2020
Orbit: 799 x 815 km, 98.6° (Epoch: 23 September)

Event Time Altitude Azimuth Distance (km) Brightness Sun altitude
Rises 03:09:33 0° 7° (N) 3,339 6.2 -11.0°
Reaches altitude 10° 03:12:20 10° 353° (N) 2,400 5.1 -10.7°
Maximum altitude 03:16:23 23° 303° (WNW) 1,663 3.6 -10.2°
Drops below altitude 10° 03:20:25 10° 253° (WSW) 2,382 4.0 -9.8°
Enters shadow 03:20:28 10° 252° (WSW) 2,397 4.0 -9.8°
